[[{"header":{"parameterUnit":"m.s-1","parameterCategory":1,"la1":30.2991,"la2":30.254,"lo1":-89.0895,"lo2":-89.0444,"dy":0.0017,"dx":0.0017,"nx":28,"ny":28,"refTime":"2024-03-07T09:00:00:Z","depth":0,"parameterNumber":2,"parameterNumberName":"U-component_of_WINDS"},"data":[0,0,0,0,0,0,0,0,0,0,0,0,0,0,0,0,0,0,0,0,0,0,0,0,0,0,0,0,0,0,0,0,0,0,0,0,0,0,0,0,0,0,0,0,0,0,0,0,0,0,0,0,0,0,0,0,0,0,-6.4408,-6.441,0,-6.453,-6.4531,-6.4533,-6.4489,-6.4486,-6.4483,-6.448,-6.4602,-6.4608,-6.4613,0,0,0,0,0,0,0,0,0,0,0,0,0,-6.4135,-6.414,-6.4408,-6.441,-6.4411,-6.453,-6.4532,-6.4533,-6.4489,-6.4486,-6.4482,-6.4479,-6.46,-6.4607,-6.4614,0,0,0,0,0,0,0,0,0,0,0,0,0,-6.4255,-6.4142,-6.4408,-6.4404,-6.4404,-6.453,-6.4532,-6.4534,-6.449,-6.4486,-6.4481,-6.4478,-6.4598,-6.4606,-6.4615,-6.4751,0,0,-6.4641,-6.4645,0,0,0,0,0,0,0,0,-6.4248,-6.4265,-6.4403,-6.4404,-6.4405,-6.449,-6.448,-6.4606,-6.4491,-6.4457,-6.448,-6.4476,-6.4568,-6.4579,-6.461,-6.4756,-6.4761,-6.4642,-6.4647,-6.4651,-6.4654,0,0,0,0,0,0,0,-6.424,-6.4259,-6.4456,-6.4405,-6.4406,-6.4395,-6.4407,-6.4504,-6.4534,-6.446,-6.4457,-6.4472,-6.4568,-6.4602,-6.4613,-6.4763,-6.4642,-6.465,-6.4655,-6.4658,-6.5026,-6.503,0,0,0,0,0,0,-6.4231,-6.4253,-6.4452,-6.446,-6.4315,-6.4403,-6.4417,-6.4467,-6.4533,-6.4539,-6.4476,-6.447,-6.4589,-6.4603,-6.4617,-6.4779,-6.4651,-6.4659,-6.4664,-6.5021,-6.5027,-6.5032,0,0,0,0,0,0,-6.4226,-6.425,-6.4448,-6.4356,-6.438,-6.4412,-6.4468,-6.4471,-6.4506,-6.4545,-6.455,-6.4505,-6.4587,-6.4605,-6.4718,-6.4782,-6.4663,-6.4671,-6.5016,-6.5023,-6.5029,-6.5104,0,0,0,0,0,0,-6.4218,-6.4248,-6.43,-6.4357,-6.4385,-6.4547,-6.4473,-6.4477,-6.4521,-6.4515,-6.4574,-6.458,-6.4585,-6.4705,-6.4726,-6.4792,-6.4678,-6.501,-6.5019,-6.5027,-6.5096,-6.5112,-6.5127,0,0,0,0,0,-6.4208,-6.4316,-6.4303,-6.4327,-6.4451,-6.4551,-6.4566,-6.4571,-6.4527,-6.4579,-6.4604,-6.4578,-6.4773,-6.4717,-6.4741,-6.481,-6.5006,-6.5016,-6.5026,-6.5089,-6.5109,-6.5126,0,0,0,0,0,0,-6.4263,-6.4323,-6.4309,-6.4439,-6.449,-6.4543,-6.4609,-6.4593,-6.4657,-6.4648,-6.465,-6.4664,-6.478,-6.4807,-6.4743,-6.4944,-6.4882,-6.4898,-6.4922,-6.4942,-6.4957,-6.4946,-6.4685,0,0,0,0,0,-6.4291,-6.4368,-6.4415,-6.4525,-6.4552,-6.4576,-6.462,-6.4619,-6.4672,-6.4693,-6.4726,-6.4778,-6.4851,-6.4898,-6.4967,-6.5101,-6.5112,-6.516,-6.5176,-6.5189,-6.52,-6.5272,-6.5293,-6.5065,-6.5065,-6.5065,0,0,-6.4348,-6.439,-6.4438,-6.4537,-6.4577,-6.4655,-6.4594,-6.468,-6.4737,-6.4706,-6.4813,-6.4841,-6.4898,-6.5022,-6.5078,-6.5047,-6.5267,-6.5202,-6.5211,-6.5216,-6.5284,-6.5306,-6.5325,-6.5072,-6.5071,-6.507,0,0,-6.449,-6.4531,-6.4626,-6.4668,-6.4729,-6.4746,-6.4769,-6.4825,-6.4841,-6.4951,-6.4928,-6.4997,-6.5123,-6.5164,-6.5202,-6.5364,-6.5341,-6.5387,-6.5466,-6.5535,-6.5553,-6.5569,-6.5624,-6.5644,-6.5399,-6.5399,-6.54,0,-6.4552,-6.467,-6.4676,-6.4764,-6.4808,-6.4785,-6.488,-6.492,-6.5001,-6.5031,-6.4997,-6.5155,-6.5192,-6.5324,-6.5364,-6.5396,-6.5421,-6.5377,-6.555,-6.5566,-6.5581,-6.5633,-6.5654,-6.5404,-6.5404,-6.5403,-6.5403,0,-6.4742,-6.4825,-6.4894,-6.4973,-6.5026,-6.5117,-6.5136,-6.5188,-6.5184,-6.5204,-6.5315,-6.536,-6.5437,-6.5469,-6.5466,-6.5601,-6.558,-6.5549,-6.5486,-6.5607,-6.5656,-6.5677,-6.5411,-6.5409,-6.5408,-6.5407,0,0,-6.4918,-6.5003,-6.5028,-6.5063,-6.5131,-6.5194,-6.5285,-6.5362,-6.5405,-6.5463,-6.5537,-6.5646,-6.5617,-6.566,-6.5662,-6.5723,-6.5845,-6.5684,-6.5685,-6.5709,-6.5995,-6.6015,-6.6039,-6.5833,-6.5837,-6.584,-6.5989,0,-6.5064,-6.5223,-6.5232,-6.5376,-6.5451,-6.5432,-6.5511,-6.5561,-6.5582,-6.5649,-6.5672,-6.5748,-6.5706,-6.5731,-6.5792,-6.5818,-6.5902,-6.5808,-6.59,-6.5903,-6.5882,-6.6065,-6.6087,-6.6225,-6.6009,-6.6012,-6.6014,0,-6.5254,-6.5318,-6.547,-6.5527,-6.5559,-6.5629,-6.5701,-6.5766,-6.5822,-6.5833,-6.5882,-6.5876,-6.5967,-6.5905,-6.603,-6.5966,-6.6005,-6.6024,-6.6029,-6.6034,-6.5963,-6.6072,-6.6269,-6.6289,-6.6045,-6.6043,-6.6041,0,-6.5363,-6.5489,-6.5595,-6.5627,-6.5697,-6.5747,-6.5778,-6.5831,-6.5877,-6.594,-6.5969,-6.6042,-6.6081,-6.6137,-6.615,-6.6104,-6.6275,-6.6213,-6.6284,-6.6284,-6.6317,-6.6314,-6.652,-6.635,-6.6349,-6.6349,-6.6348,0,-6.5522,-6.5615,-6.5645,-6.571,-6.5813,-6.5824,-6.5925,-6.5954,-6.6001,-6.607,-6.606,-6.6125,-6.614,-6.6208,-6.622,-6.632,-6.6339,-6.6349,-6.635,-6.6348,-6.6346,-6.637,-6.6359,-6.6354,-6.6353,-6.6352,-6.6351,0,-6.566,-6.5685,-6.5799,-6.5857,-6.5874,-6.5947,-6.5997,-6.6059,-6.608,-6.6168,-6.619,-6.6223,-6.6303,-6.6323,-6.6418,-6.6425,-6.6544,-6.6538,-6.6525,-6.6523,-6.6592,-6.6583,-6.6817,-6.6847,-6.666,-6.6662,-6.6663,0,-6.5758,-6.5829,-6.5896,-6.5942,-6.5976,-6.6051,-6.6098,-6.6113,-6.6162,-6.6232,-6.6286,-6.6365,-6.6428,-6.6556,-6.6588,-6.6661,-6.6654,-6.6731,-6.6665,-6.666,-6.6651,-6.6645,-6.6651,-6.6742,-6.6744,-6.6746,-6.6747,0,-6.5928,-6.5937,-6.6006,-6.608,-6.6137,-6.6196,-6.6251,-6.629,-6.6312,-6.6368,-6.645,-6.65,-6.6598,-6.6676,-6.6749,-6.6781,-6.6767,-6.6769,-6.6788,-6.6784,-6.6773,-6.6777,-6.6555,-6.6762,-6.6761,-6.676,-6.6759,-6.6758,-6.6046,-6.6108,-6.6165,-6.6242,-6.6286,-6.6339,-6.64,-6.6431,-6.65,-6.658,-6.6586,-6.6674,-6.6729,-6.6827,-6.6863,-6.6932,-6.6909,-6.6938,-6.6944,-6.695,-6.6955,-6.6766,-6.6946,-6.6946,-6.6946,-6.6945,-6.6945,0,-6.6212,-6.6249,-6.632,-6.6399,-6.646,-6.6446,-6.6507,-6.6559,-6.6637,-6.6691,-6.6754,-6.6848,-6.6924,-6.6964,-6.7039,-6.7086,-6.7082,-6.7105,-6.71,-6.7107,-6.6973,-6.6947,-6.7107,-6.7107,-6.7107,-6.7107,-6.7107,-6.7107,-6.6305,-6.6409,-6.6425,-6.655,-6.6586,-6.6673,-6.6709,-6.6758,-6.6801,-6.6907,-6.697,-6.6996,-6.7044,-6.7123,-6.7192,-6.7201,-6.7228,-6.7254,-6.726,-6.7133,-6.7116,-6.71,-6.7075,-6.726,-6.726,-6.7387,-6.7388,-6.7389]},{"header":{"parameterUnit":"m.s-1","parameterCategory":1,"la1":30.2991,"la2":30.254,"lo1":-89.0895,"lo2":-89.0444,"dy":0.0017,"dx":0.0017,"nx":28,"ny":28,"refTime":"2024-03-07T09:00:00:Z","depth":0,"parameterNumber":3,"parameterNumberName":"V-component_of_WINDS"},"data":[0,0,0,0,0,0,0,0,0,0,0,0,0,0,0,0,0,0,0,0,0,0,0,0,0,0,0,0,0,0,0,0,0,0,0,0,0,0,0,0,0,0,0,0,0,0,0,0,0,0,0,0,0,0,0,0,0,0,2.4605,2.4605,0,2.463,2.463,2.463,2.4602,2.4601,2.46,2.4599,2.4622,2.4624,2.4626,0,0,0,0,0,0,0,0,0,0,0,0,0,2.4533,2.4534,2.4605,2.4605,2.4605,2.463,2.463,2.463,2.4602,2.4601,2.46,2.4598,2.4622,2.4624,2.4626,0,0,0,0,0,0,0,0,0,0,0,0,0,2.4561,2.4535,2.4605,2.4594,2.4594,2.463,2.463,2.4631,2.4603,2.4601,2.4599,2.4598,2.4621,2.4624,2.4626,2.4673,0,0,2.4633,2.4635,0,0,0,0,0,0,0,0,2.456,2.4564,2.4595,2.4595,2.4594,2.4611,2.4613,2.4645,2.4603,2.4599,2.4599,2.4597,2.462,2.4622,2.463,2.4674,2.4675,2.4634,2.4635,2.4636,2.4637,0,0,0,0,0,0,0,2.4558,2.4563,2.4615,2.4596,2.4595,2.4589,2.4591,2.4619,2.4618,2.4599,2.4597,2.4601,2.4619,2.4628,2.4631,2.4675,2.4634,2.4636,2.4637,2.4638,2.4763,2.4764,0,0,0,0,0,0,2.4557,2.4561,2.4614,2.4615,2.4573,2.4591,2.4594,2.4607,2.4618,2.4618,2.4602,2.4599,2.4625,2.4628,2.4632,2.469,2.4636,2.4638,2.464,2.4761,2.4763,2.4765,0,0,0,0,0,0,2.4556,2.4562,2.4613,2.4588,2.4594,2.4594,2.461,2.4609,2.4618,2.462,2.4619,2.4611,2.4624,2.4628,2.4664,2.469,2.464,2.4642,2.4759,2.4761,2.4764,2.4805,0,0,0,0,0,0,2.4554,2.4562,2.4579,2.4589,2.4595,2.4645,2.4611,2.461,2.4622,2.4619,2.4628,2.4629,2.4623,2.466,2.4666,2.4692,2.4644,2.4756,2.476,2.4763,2.4801,2.4808,2.4815,0,0,0,0,0,2.4551,2.4588,2.458,2.4587,2.4617,2.4646,2.465,2.4643,2.4624,2.4642,2.4644,2.4628,2.4686,2.4664,2.4671,2.4698,2.4755,2.4759,2.4763,2.4798,2.4807,2.4815,0,0,0,0,0,0,2.458,2.4589,2.458,2.4621,2.4634,2.4641,2.4663,2.4652,2.4669,2.4665,2.4656,2.4658,2.4697,2.4701,2.4676,2.4746,2.4717,2.4723,2.4742,2.475,2.4757,2.4756,2.4646,0,0,0,0,0,2.4591,2.4614,2.4621,2.4657,2.4663,2.4663,2.4675,2.4669,2.4681,2.4685,2.469,2.4702,2.4723,2.4737,2.4756,2.4802,2.4804,2.4824,2.4831,2.4836,2.4841,2.4869,2.4878,2.4779,2.4779,2.4779,0,0,2.4614,2.4622,2.4637,2.4663,2.4671,2.4696,2.4667,2.4693,2.4712,2.4689,2.4724,2.4728,2.4741,2.4783,2.4801,2.4787,2.487,2.4842,2.4846,2.4848,2.4874,2.4883,2.4892,2.4782,2.4781,2.4781,0,0,2.467,2.4677,2.4709,2.472,2.4734,2.4734,2.4742,2.4752,2.4755,2.479,2.4775,2.4797,2.4832,2.4843,2.4853,2.4917,2.4904,2.4924,2.496,2.4987,2.4995,2.5002,2.5026,2.5035,2.4929,2.4929,2.4929,0,2.4696,2.4733,2.4727,2.4756,2.4769,2.4752,2.4785,2.4795,2.4814,2.4824,2.4808,2.4855,2.4862,2.4908,2.4924,2.4932,2.4942,2.4922,2.4994,2.5001,2.5007,2.5031,2.504,2.4931,2.4931,2.4931,2.493,0,2.4766,2.4793,2.4817,2.4839,2.4854,2.4885,2.4884,2.4901,2.4895,2.4897,2.4935,2.4943,2.4965,2.4976,2.4968,2.5021,2.5012,2.4996,2.4967,2.5019,2.5042,2.505,2.4935,2.4934,2.4933,2.4932,0,0,2.4838,2.4859,2.4868,2.488,2.4896,2.4916,2.4947,2.4971,2.4986,2.5001,2.5028,2.5061,2.5047,2.5058,2.5053,2.5076,2.513,2.5057,2.5057,2.5072,2.5191,2.5205,2.5215,2.5121,2.5123,2.5124,2.5191,0,2.4895,2.495,2.4947,2.4999,2.5025,2.5011,2.5038,2.5052,2.5056,2.5078,2.5081,2.5106,2.5084,2.5091,2.5114,2.5118,2.5154,2.5113,2.5147,2.5148,2.5145,2.5226,2.524,2.5302,2.5199,2.52,2.5201,0,2.4968,2.4989,2.5044,2.506,2.5071,2.5096,2.5119,2.514,2.5156,2.5157,2.5173,2.5164,2.5197,2.5168,2.5214,2.5187,2.5201,2.5205,2.5208,2.5211,2.5178,2.5233,2.5321,2.5331,2.5215,2.5214,2.5213,0,2.5018,2.5058,2.5098,2.5108,2.5127,2.5145,2.5154,2.5169,2.5184,2.5205,2.5215,2.5238,2.5251,2.527,2.5268,2.5247,2.5316,2.5286,2.5319,2.5319,2.5334,2.5333,2.5427,2.5341,2.5341,2.5341,2.534,0,2.5082,2.5117,2.5121,2.5145,2.5184,2.5182,2.5221,2.5227,2.5241,2.5267,2.5256,2.528,2.5277,2.5302,2.5301,2.5341,2.5346,2.5349,2.5348,2.535,2.535,2.5359,2.5356,2.5343,2.5343,2.5342,2.5342,0,2.5143,2.5147,2.519,2.5206,2.5211,2.524,2.5254,2.5277,2.5281,2.5314,2.5322,2.5328,2.5357,2.5358,2.539,2.539,2.5439,2.5433,2.5434,2.5434,2.5467,2.5465,2.5571,2.5586,2.5489,2.549,2.549,0,2.5185,2.5212,2.5232,2.525,2.5261,2.5288,2.5305,2.5304,2.5322,2.5345,2.5366,2.5395,2.5418,2.5465,2.5472,2.5498,2.5493,2.5529,2.5497,2.5499,2.5496,2.5495,2.5499,2.5535,2.5536,2.5537,2.5538,0,2.5259,2.5261,2.5286,2.5313,2.5334,2.5355,2.5374,2.5389,2.539,2.5412,2.5442,2.546,2.5496,2.5525,2.5551,2.556,2.555,2.5548,2.5557,2.556,2.5561,2.5563,2.5453,2.5545,2.5545,2.5544,2.5544,2.5543,2.5313,2.5338,2.5357,2.5387,2.5402,2.5421,2.5445,2.5454,2.548,2.551,2.5507,2.5542,2.556,2.5594,2.5606,2.5634,2.5621,2.5634,2.5638,2.5641,2.5646,2.5556,2.5638,2.5638,2.5637,2.5637,2.5637,0,2.5388,2.5401,2.5428,2.5457,2.5481,2.5471,2.5493,2.5514,2.5545,2.5564,2.5588,2.5625,2.5654,2.5664,2.5693,2.5713,2.571,2.5721,2.572,2.5723,2.5654,2.5644,2.5724,2.5724,2.5724,2.5723,2.5723,2.5723,2.543,2.5473,2.5477,2.5528,2.554,2.5576,2.559,2.5608,2.5623,2.5666,2.5691,2.5698,2.5714,2.5744,2.5771,2.5774,2.5785,2.5799,2.58,2.5736,2.5727,2.5719,2.571,2.5801,2.5801,2.5866,2.5867,2.5868]}]]